Change the Weather History Date:

Saturday, August 31, 2013

  Actual Average Record
Temperature  
Mean Temperature 62 °F -  
Max Temperature 84 °F 72 °F 87 °F (1998)
Min Temperature 42 °F 35 °F 27 °F (2006)
Degree Days  
Heating Degree Days 3    
Growing Degree Days 12 (Base 50)    
Moisture  
Dew Point 44 °F    
Average Humidity 56    
Maximum Humidity 90    
Minimum Humidity 26    
Precipitation  
Precipitation 0.00 in - - ()
Sea Level Pressure  
Sea Level Pressure 30.01 in    
Wind  
Wind Speed 1 mph (NNE)    
Max Wind Speed 6 mph    
Max Gust Speed -    
Visibility 10 miles    
Events      
Averages and records for this station are not official NWS values.
T = Trace of Precipitation, MM = Missing Value Source: NWS Daily Summary

Daily Weather History Graph

Daily Weather History Graph

Search for Another Location

Airport or City:

Trip Planner

Search our weather history database for the weather conditions in past years. The results will help you decide how hot, cold, wet, or windy it might be!

Date:

Astronomy

Aug. 31, 2013 Rise Set
Actual Time 6:14 AM PDT 7:32 PM PDT
Civil Twilight 5:43 AM PDT 8:03 PM PDT
Nautical Twilight 5:06 AM PDT 8:40 PM PDT
Astronomical Twilight 4:27 AM PDT 9:19 PM PDT
Moon 1:38 AM PDT 4:41 PM PDT
Length of Visible Light 14h 19m
Length of Day
13h 18m
Waning Crescent, 20% of the Moon is Illuminated
Aug 31
Waning Crescent
Sep 5
New
Sep 12
First Quarter
Sep 19
Full
Sep 26
Last Quarter

Hourly Weather History & Observations

Time (PDT) Temp. Dew Point Humidity Pressure Visibility Wind Dir Wind Speed Gust Speed Precip Events Conditions
12:56 AM 48.0 °F 44.1 °F 86% 30.11 in 10.0 mi Calm Calm - N/A   Clear
1:56 AM 46.9 °F 43.0 °F 86% 30.10 in 10.0 mi Calm Calm - N/A   Clear
2:56 AM 45.0 °F 42.1 °F 90% 30.10 in 10.0 mi Calm Calm - N/A   Clear
3:56 AM 44.1 °F 41.0 °F 89% 30.09 in 10.0 mi Calm Calm - N/A   Clear
4:56 AM 43.0 °F 39.9 °F 89% 30.09 in 10.0 mi Calm Calm - N/A   Clear
5:56 AM 42.1 °F 39.0 °F 89% 30.10 in 10.0 mi Calm Calm - N/A   Clear
6:56 AM 43.0 °F 39.9 °F 89% 30.10 in 10.0 mi Calm Calm - N/A   Clear
7:56 AM 51.1 °F 43.0 °F 74% 30.09 in - Calm Calm - N/A   Clear
8:56 AM 64.9 °F 48.9 °F 56% 30.06 in 10.0 mi Calm Calm - N/A   Clear
9:56 AM 72.0 °F 48.9 °F 44% 30.05 in 10.0 mi Calm Calm - N/A   Clear
10:56 AM 78.1 °F 48.0 °F 35% 30.03 in 10.0 mi Calm Calm - N/A   Clear
11:56 AM 79.0 °F 46.0 °F 31% 30.01 in 10.0 mi Calm Calm - N/A   Clear
12:56 PM 81.0 °F 48.0 °F 31% 30.00 in 10.0 mi NNE 5.8 mph - N/A   Clear
1:56 PM 82.9 °F 48.0 °F 29% 29.99 in 10.0 mi Variable 3.5 mph - N/A   Clear
2:56 PM 82.0 °F 45.0 °F 27% 29.97 in 10.0 mi Variable 3.5 mph - N/A   Clear
3:56 PM 82.9 °F 45.0 °F 26% 29.96 in 10.0 mi Calm Calm - N/A   Clear
4:56 PM 81.0 °F 43.0 °F 26% 29.95 in 10.0 mi Variable 5.8 mph - N/A   Clear
5:56 PM 80.1 °F 43.0 °F 27% 29.94 in 10.0 mi Variable 5.8 mph - N/A   Clear
6:56 PM 77.0 °F 43.0 °F 30% 29.95 in 10.0 mi Calm Calm - N/A   Clear
7:56 PM 70.0 °F 43.0 °F 38% 29.95 in 10.0 mi Calm Calm - N/A   Clear
8:56 PM 63.0 °F 43.0 °F 48% 29.94 in 9.0 mi Calm Calm - N/A   Clear
9:56 PM 59.0 °F 45.0 °F 60% 29.93 in 10.0 mi Calm Calm - N/A   Clear
10:56 PM 55.0 °F 44.1 °F 67% 29.92 in 10.0 mi Calm Calm - N/A   Clear
11:56 PM 52.0 °F 43.0 °F 71% 29.92 in 10.0 mi Calm Calm - N/A   Clear